GEFSNE_500_meanwind_066.txt.gz
Wind_Speed
36 37 39 40 41 42 43 44 46 47 48 49 50 51 52 54 55 56 57 58 59 60 60 61 62 63 64 64 65 66 65 66 66 66 65 65 65 64
39 40 41 42 43 45 46 47 48 49 51 52 53 54 55 55 56 58 59 60 60 61 61 61 61 62 62 62 62 62 62 62 61 61 60 59 59 59
40 41 43 44 45 47 48 49 51 52 53 53 54 56 57 57 57 58 59 59 59 58 58 59 58 58 58 58 58 57 57 57 57 56 55 55 55 55
42 43 44 45 46 47 48 49 51 52 52 53 54 56 57 58 58 58 58 57 57 57 57 56 54 53 54 54 54 53 52 51 50 50 50 50 49 49
42 43 44 44 44 45 46 47 48 49 50 51 52 52 53 53 53 54 54 53 53 52 52 52 50 49 48 48 47 46 46 45 45 45 44 44 44 45
42 42 42 42 43 43 44 45 45 46 46 46 46 46 47 48 48 47 46 46 46 45 44 44 43 42 41 41 40 40 39 39 38 38 38 39 40 41
39 39 40 40 40 40 40 40 40 40 40 40 39 39 39 38 38 38 37 37 36 36 37 36 36 37 36 35 35 35 34 34 34 34 35 36 37 38
36 35 35 35 35 35 35 34 34 34 34 33 33 32 31 31 31 30 30 30 30 30 30 30 30 30 29 29 29 29 29 29 29 30 31 33 34 35
30 30 30 30 30 29 29 30 29 29 28 27 26 26 25 25 25 25 25 25 24 25 25 25 25 24 24 24 24 24 24 25 26 27 29 30 31 32
27 26 26 26 25 25 25 25 25 24 23 22 22 22 22 22 21 21 21 21 21 20 20 20 20 19 19 19 19 20 21 22 24 25 28 29 30 29
22 22 21 21 21 21 21 21 21 20 19 19 19 18 18 17 17 17 16 16 16 16 15 16 15 15 16 16 17 18 19 20 22 25 26 27 27 27
17 17 16 17 17 18 18 18 18 17 17 16 16 15 15 14 14 14 14 14 13 13 13 13 12 13 14 14 15 16 18 20 22 23 25 25 26 26
15 15 15 16 17 17 17 16 16 16 15 15 14 14 14 13 13 13 13 12 12 11 11 10 10 12 12 13 14 15 18 20 21 22 23 24 24 25
13 14 15 15 16 16 16 15 15 15 14 14 14 14 14 13 13 13 12 12 11 10 9 9 10 11 12 13 14 17 18 19 20 21 23 23 24 25
13 13 14 15 15 15 15 15 15 14 14 14 14 14 13 13 12 12 12 11 11 10 9 9 10 11 12 13 15 17 18 19 20 21 22 23 24 25
12 13 14 15 15 15 15 15 14 14 14 14 14 13 12 12 11 11 10 10 10 9 9 9 10 11 12 13 15 17 18 19 20 22 23 23 24 25
13 13 14 15 15 15 15 15 14 14 14 13 12 12 12 11 10 10 9 9 9 9 9 9 10 11 12 14 15 17 18 19 21 22 23 24 25 25
12 13 14 14 14 15 15 14 14 14 13 12 12 11 11 10 9 8 8 9 9 9 9 10 11 12 13 14 16 17 18 19 21 22 23 24 25 26
12 13 14 14 14 14 14 13 13 12 12 11 11 10 10 9 8 8 8 8 9 9 9 10 11 12 13 14 16 17 18 19 21 22 23 24 25 27
12 13 13 14 14 14 13 13 12 11 11 10 10 10 9 8 7 7 7 8 8 9 9 10 11 12 13 14 16 17 18 20 21 22 24 25 26 27
12 13 13 13 13 13 12 12 11 10 10 9 9 8 8 7 7 6 7 7 8 9 10 10 11 12 13 14 16 17 19 20 21 23 25 26 28 29
12 13 13 12 12 12 12 11 11 10 9 8 8 7 7 7 7 7 7 8 9 9 10 11 11 12 13 15 16 18 19 20 22 23 25 26 27 28
12 12 12 12 12 11 11 11 10 9 8 8 7 7 6 7 7 7 8 9 9 10 11 11 12 13 14 16 17 18 19 20 22 23 24 25 26 27

GEFSNE_500_meanwind_072.txt.gz
Wind_Speed
32 33 35 36 38 39 41 42 43 45 47 48 50 51 52 54 55 57 58 59 60 61 62 63 63 63 63 62 62 61 61 61 62 63 64 63 62 62
34 35 36 38 39 41 42 44 45 47 49 50 51 52 53 55 55 56 57 59 60 61 62 62 62 62 61 61 61 61 60 61 61 61 61 59 58 56
34 35 37 38 40 42 43 45 46 47 49 50 51 52 54 55 55 56 57 58 58 58 58 58 58 58 57 56 57 57 57 57 56 56 55 53 52 52
35 37 38 39 41 42 43 45 46 47 48 49 50 51 52 53 53 53 54 54 54 54 53 52 52 53 53 52 52 52 51 51 50 49 49 49 49 47
36 37 38 40 41 42 43 44 44 45 46 46 47 48 48 49 49 49 50 49 48 47 46 45 45 45 45 45 44 45 44 44 44 44 44 43 42 41
36 37 38 39 40 41 41 41 42 42 42 43 43 44 44 44 45 44 43 41 40 40 39 37 36 36 36 35 35 35 35 36 36 37 37 36 36 37
35 36 37 37 37 38 38 39 39 39 39 39 40 40 40 40 39 38 36 34 33 33 33 31 30 30 29 29 30 30 30 31 31 31 31 32 33 34
34 34 34 34 34 36 36 35 35 35 35 35 35 35 35 34 33 31 30 29 29 29 28 27 27 27 27 27 27 27 26 26 26 27 28 29 29 30
30 30 30 30 30 29 29 29 29 28 28 29 29 28 28 27 27 26 26 25 24 24 23 23 23 23 23 23 23 22 22 23 23 24 25 26 26 27
25 25 25 25 25 25 24 24 24 25 25 25 24 24 24 24 23 22 21 21 19 19 20 20 19 18 18 18 18 18 19 19 21 22 22 23 24 25
23 23 23 22 22 22 22 22 22 22 22 22 21 21 21 21 20 19 18 17 16 15 15 15 15 15 14 14 15 16 17 18 19 20 20 21 22 23
20 20 20 19 20 20 20 20 20 19 19 20 19 19 19 19 18 16 15 14 13 12 12 12 12 12 13 13 14 16 16 17 18 18 19 20 21 21
18 17 17 17 17 18 18 18 18 17 17 17 17 17 17 15 14 14 13 12 11 11 11 10 10 11 12 12 14 15 16 17 18 18 19 20 21 20
15 15 15 16 16 17 17 17 16 16 16 16 15 15 14 13 12 11 11 11 10 10 9 9 9 10 11 12 13 14 15 16 18 19 20 20 20 20
13 13 14 15 15 16 15 15 15 15 14 14 14 13 12 11 11 10 10 10 9 8 8 8 8 9 10 12 12 13 15 16 18 19 20 21 21 21
12 13 13 13 14 14 14 14 14 13 13 13 12 11 11 10 10 9 9 8 8 7 7 7 8 9 10 11 12 13 15 16 18 19 20 21 22 22
12 12 12 13 13 13 13 13 13 12 12 11 10 10 9 9 8 7 7 7 6 6 6 7 8 9 10 11 12 14 15 17 18 19 20 21 22 23
11 11 12 12 13 13 13 12 12 11 10 10 9 8 8 7 7 6 6 6 6 6 6 6 8 9 10 11 13 14 15 17 18 19 20 21 22 23
10 11 11 12 12 12 11 11 10 10 9 9 8 7 7 6 5 4 5 5 6 6 6 7 8 9 10 12 13 14 15 16 18 19 20 21 22 23
9 10 11 11 11 11 10 10 9 9 8 8 7 6 6 5 4 3 4 5 5 6 7 7 8 9 10 12 13 14 15 16 17 19 20 21 22 23
9 10 10 10 10 10 10 9 9 8 8 7 6 5 4 4 3 3 4 4 5 5 6 7 8 9 10 11 13 14 15 16 17 18 19 20 21 22
8 9 9 9 9 9 9 8 8 7 7 6 5 5 4 4 4 4 4 4 5 5 6 7 8 9 10 11 12 13 14 15 16 18 19 20 21 22
8 8 9 8 8 8 8 7 7 6 5 5 5 4 4 4 4 4 5 5 5 6 7 7 8 9 10 11 12 13 13 15 16 17 18 20 21 21

GEFSNE_500_meanwind_078.txt.gz
Wind_Speed
34 34 35 35 36 37 37 38 39 40 41 42 43 45 46 47 48 49 51 52 53 54 55 57 58 58 59 59 59 59 58 58 57 57 56 55 55 56
33 32 33 33 34 36 37 38 40 42 43 43 44 46 47 48 49 50 51 52 53 54 55 56 56 56 57 57 56 56 55 53 52 51 50 49 50 51
31 31 32 33 34 35 37 38 39 41 42 44 45 46 47 48 49 49 50 51 51 52 53 53 53 53 53 52 51 50 49 48 46 45 44 44 45 46
29 30 31 33 34 35 36 38 39 41 42 43 44 46 47 47 48 48 49 49 49 50 50 49 49 48 47 46 44 43 42 41 39 38 39 40 41 41
29 30 32 33 34 35 37 38 39 40 41 42 43 44 44 45 45 46 46 46 46 46 45 44 43 41 40 39 38 37 36 35 34 34 35 35 36 36
30 31 32 33 34 35 37 38 39 40 40 41 41 41 42 42 42 42 42 42 41 40 39 37 35 34 34 33 32 31 30 30 30 31 32 32 32 32
30 31 32 33 34 35 36 36 37 38 38 38 38 38 39 39 38 38 37 35 35 34 32 30 29 29 28 28 27 26 26 27 27 27 27 27 28 28
29 31 31 32 33 33 34 34 35 35 35 35 35 35 35 34 34 33 31 30 29 27 26 25 25 24 24 24 24 24 24 24 24 24 24 24 24 24
28 29 30 31 31 31 32 32 32 32 32 31 31 30 29 29 29 28 27 26 24 23 22 22 21 21 20 21 21 22 22 22 21 21 21 22 22 22
27 28 28 28 28 29 29 29 29 29 28 27 27 26 25 24 24 23 23 21 20 19 18 18 18 18 18 19 20 20 20 20 20 20 20 20 20 20
26 26 26 26 26 27 27 26 26 26 24 24 23 23 22 22 22 21 19 17 16 16 15 15 15 16 16 17 18 18 18 19 19 19 19 19 20 20
24 24 24 24 24 24 24 24 23 23 22 21 20 20 20 20 19 18 17 15 14 12 12 12 13 14 14 15 16 16 17 18 18 18 19 20 20 21
22 22 21 21 21 21 21 21 21 20 19 19 19 19 18 18 17 15 14 12 11 10 10 10 11 12 13 14 14 15 15 16 17 18 19 20 21 21
19 19 19 19 19 19 19 19 18 18 18 18 18 17 17 16 14 13 11 10 9 9 8 8 9 11 12 13 14 15 15 16 16 17 18 19 21 22
17 17 17 18 18 17 17 17 16 16 17 17 16 15 15 14 13 11 9 9 8 7 6 7 8 9 11 12 13 14 15 16 17 17 18 19 21 22
16 16 16 16 16 16 16 16 16 16 15 15 14 14 13 12 11 9 8 7 6 6 5 6 7 8 10 11 12 13 14 15 16 17 18 20 21 22
14 14 15 15 15 15 15 15 14 14 14 14 13 13 11 10 9 7 6 5 4 4 4 5 6 7 9 10 11 12 13 14 16 17 18 19 21 22
13 13 13 13 13 13 13 13 13 13 12 12 11 11 10 8 7 6 5 3 3 3 3 4 5 6 7 9 10 11 13 14 16 17 18 19 20 22
11 12 12 12 12 12 12 12 12 11 11 11 10 9 8 7 5 4 3 2 2 2 3 4 5 6 7 8 10 11 13 14 15 16 17 19 20 21
10 11 11 11 11 11 11 11 11 10 10 9 9 8 6 5 3 3 2 1 1 2 3 4 5 6 7 8 9 11 12 14 15 16 18 19 20 21
9 10 10 10 10 10 10 10 9 9 8 7 7 5 4 3 2 2 1 2 2 3 3 4 5 6 7 8 9 10 12 13 15 16 18 19 20 21
8 9 9 9 9 9 9 8 8 7 6 6 5 4 3 2 2 1 2 2 3 3 4 4 5 6 6 7 8 10 11 13 15 16 18 19 20 21
8 8 8 8 8 8 8 7 6 6 5 4 3 3 2 2 2 2 2 3 3 4 4 4 5 6 6 7 8 10 11 13 15 16 18 19 21 22

GEFSNE_500_meanwind_084.txt.gz
Wind_Speed
27 28 29 30 31 32 33 33 33 33 34 36 37 37 38 39 40 41 42 43 44 45 47 47 48 49 49 49 50 51 51 51 51 51 50 49 49 48
26 27 28 29 30 30 31 31 31 32 33 34 35 36 37 38 39 40 42 43 44 45 46 46 47 47 46 47 48 48 48 48 47 46 46 45 44 43
25 25 26 27 27 28 28 29 30 31 32 34 35 36 37 39 40 42 43 43 44 45 45 45 45 44 45 45 45 44 43 42 41 41 40 40 39 40
23 24 25 26 26 27 27 28 29 30 31 33 35 36 38 39 41 41 42 42 42 43 43 43 43 42 42 42 41 40 39 38 37 37 36 35 35 35
22 23 24 24 25 26 27 28 29 30 32 33 35 36 37 38 39 39 39 39 40 40 40 40 40 39 39 38 36 34 34 33 32 31 30 30 29 28
22 23 24 24 25 26 27 28 29 31 32 33 34 35 36 36 36 37 37 37 37 37 37 36 35 35 33 31 29 28 28 27 27 26 25 24 24 24
22 22 23 24 25 26 27 28 29 30 31 32 32 33 33 34 34 34 34 34 33 33 32 31 30 28 26 25 24 24 24 24 23 22 22 21 21 22
22 22 23 24 25 25 27 27 28 28 29 30 30 31 31 32 31 31 31 30 29 29 27 26 24 23 21 21 22 22 21 21 20 20 20 20 20 20
22 22 22 23 24 25 26 26 27 27 28 28 29 29 29 29 28 28 28 27 25 24 23 21 20 19 18 19 19 19 18 18 18 18 18 19 18 18
21 21 22 23 24 24 24 25 25 26 26 27 27 27 27 26 25 24 23 22 21 19 18 17 16 16 15 16 17 16 16 16 16 16 16 17 17 18
21 21 22 22 23 23 22 23 23 24 24 24 24 24 23 22 22 20 20 19 18 17 16 15 15 14 14 14 15 15 14 14 14 14 15 16 17 18
20 20 20 20 21 21 21 21 22 22 22 21 21 20 20 19 19 18 17 17 16 15 13 12 12 12 12 13 13 13 12 12 13 13 14 16 17 18
18 19 19 19 19 19 19 19 19 19 19 18 18 17 17 17 17 16 16 15 13 12 11 10 10 10 10 10 10 11 11 11 12 13 14 16 17 18
17 18 18 18 17 17 17 17 17 17 16 16 15 15 15 15 15 14 13 12 11 10 9 8 8 8 7 8 9 9 10 10 12 13 14 15 16 18
15 15 16 15 15 15 15 15 15 14 14 14 14 14 14 14 13 12 11 10 10 8 7 7 6 6 6 7 7 8 9 10 11 12 14 15 16 18
14 14 14 13 13 14 13 13 13 13 13 13 13 13 12 12 11 11 10 9 8 7 6 5 5 5 6 6 6 7 8 9 10 12 13 15 16 18
12 12 12 12 12 12 12 12 12 12 12 12 12 11 11 10 10 9 8 7 7 6 5 4 4 5 5 5 6 7 8 9 10 12 13 15 17 18
9 10 10 10 10 10 10 10 11 11 11 11 10 10 9 9 8 7 6 6 5 5 4 4 4 4 4 5 6 7 8 9 11 12 14 15 17 19
8 8 9 9 9 9 9 9 9 10 10 9 9 8 8 8 7 5 5 4 4 4 3 3 4 4 4 5 5 7 8 10 11 13 15 16 18 19
6 7 7 7 7 7 8 8 9 9 8 8 7 7 7 6 5 4 4 3 3 3 2 3 4 4 4 5 6 7 8 10 12 14 16 17 19 20
5 5 6 6 6 6 7 8 8 7 7 6 6 6 5 4 3 3 3 2 2 2 2 3 3 4 4 5 6 7 9 11 12 15 17 18 19 21
5 5 5 6 6 6 6 7 7 6 5 5 5 4 3 2 2 2 2 2 2 2 2 3 3 3 4 5 7 8 10 12 14 15 17 18 20 21
5 5 5 5 6 6 6 6 5 5 4 4 3 3 2 2 2 2 2 2 2 3 3 3 3 4 5 6 7 9 11 13 15 16 18 19 20 21

GEFSNE_500_meanwind_090.txt.gz
Wind_Speed
29 30 31 31 32 31 31 31 31 31 31 32 32 33 34 34 34 34 35 36 36 37 38 39 40 42 43 44 44 45 45 45 45 45 44 43 43 43
28 28 28 28 29 30 30 30 30 31 30 31 32 32 32 32 33 34 34 35 36 37 39 40 41 42 42 43 43 43 43 43 43 43 42 41 41 40
26 26 26 27 27 28 28 29 30 29 30 30 30 31 31 32 33 34 34 36 37 38 39 40 40 41 41 41 41 41 41 41 40 39 38 37 36 35
24 24 25 26 27 27 27 27 28 29 29 29 29 29 30 32 33 34 35 36 37 37 38 38 38 38 38 39 38 38 37 37 36 34 33 33 32 31
22 23 24 25 25 25 25 26 27 27 27 28 29 30 31 32 33 34 35 35 36 36 36 36 36 36 36 36 35 34 34 33 31 30 29 29 28 27
22 23 23 23 23 24 25 25 26 26 26 27 29 30 31 32 33 33 33 33 33 33 33 33 33 33 33 32 31 30 29 27 26 25 25 25 24 24
22 22 22 22 23 23 24 24 24 25 26 27 29 30 30 30 31 31 31 31 31 31 31 31 31 30 29 28 27 26 25 23 23 22 22 22 21 21
22 22 23 23 23 23 23 23 24 25 26 27 28 28 29 29 29 29 30 30 29 29 29 28 28 27 25 24 23 23 22 20 20 20 20 19 19 19
21 22 21 21 22 22 23 23 24 25 25 26 26 27 27 27 28 28 28 27 27 26 26 25 25 23 22 21 21 20 19 18 18 17 17 16 17 17
21 21 21 21 22 22 22 22 23 24 24 25 25 26 26 26 26 25 25 24 24 24 23 22 22 20 19 18 18 17 16 15 14 14 14 14 15 16
20 20 21 21 21 21 22 22 23 24 24 24 24 25 24 24 23 22 22 21 21 20 19 19 18 17 16 16 15 14 13 12 12 12 12 13 14 15
19 19 20 20 20 21 21 22 23 23 23 23 23 22 22 21 20 19 19 19 18 18 17 16 15 15 14 13 13 11 11 10 10 11 12 12 14 15
19 20 19 19 20 20 21 21 21 22 22 21 20 20 19 17 17 17 17 16 16 15 15 14 13 13 12 11 10 9 8 9 9 10 10 12 13 15
19 19 19 19 19 20 20 20 21 20 19 19 18 17 16 16 15 15 15 15 14 14 13 12 11 10 9 8 8 7 7 8 8 9 10 12 13 15
18 18 18 18 18 19 19 18 18 18 17 16 15 15 14 14 14 14 14 13 13 12 11 10 9 8 7 6 6 6 6 7 8 9 10 12 14 15
16 16 17 17 17 16 16 16 15 15 14 14 14 13 13 13 13 12 12 12 11 10 9 8 7 6 5 5 5 5 6 7 8 9 11 12 14 16
13 14 14 14 13 13 13 13 13 12 12 12 12 12 12 11 11 11 10 9 9 8 7 6 5 5 4 3 4 5 6 7 8 9 11 13 14 16
11 11 11 11 11 10 10 10 10 11 11 11 10 10 10 10 10 9 8 8 7 6 5 5 4 4 3 3 4 5 6 7 8 10 12 13 15 17
8 8 8 8 8 8 8 9 9 9 9 9 9 9 9 9 9 8 7 6 5 4 4 4 3 3 3 3 4 5 6 8 9 11 13 14 16 17
6 6 6 6 6 7 7 8 8 8 8 7 7 7 8 7 7 6 5 4 4 3 3 3 3 3 3 3 4 6 7 8 10 12 14 15 17 18
4 4 5 5 6 6 6 7 6 6 6 6 6 6 6 5 5 5 4 4 3 3 3 3 3 3 3 4 6 7 9 10 12 13 15 16 17 18
5 5 5 5 5 5 5 5 5 5 5 5 5 5 5 4 4 4 4 3 3 4 3 3 3 4 4 6 7 9 10 12 13 15 15 16 17 18
6 6 6 7 7 6 6 6 6 5 5 5 5 5 5 4 4 4 4 4 4 4 4 4 4 5 6 7 9 10 12 14 15 16 16 17 17 18

GEFSNE_500_meanwind_096.txt.gz
Wind_Speed
31 33 33 34 35 34 34 35 35 36 37 35 35 35 35 35 35 36 36 36 37 38 38 38 38 39 39 40 41 42 42 43 43 43 44 44 45 44
30 31 32 33 33 33 34 35 36 36 35 34 33 34 34 34 34 35 35 36 36 37 37 36 36 38 39 40 40 41 41 42 42 43 43 43 42 41
28 28 29 30 30 31 32 33 33 33 33 33 34 34 34 34 34 34 34 34 34 34 34 35 36 37 38 38 39 40 40 40 41 40 40 39 38 37
27 27 27 28 29 30 30 31 31 31 31 31 32 33 32 33 33 32 32 32 33 34 34 35 36 36 37 37 38 38 39 38 37 36 35 34 32 31
26 26 26 27 26 27 28 28 28 28 29 30 29 29 30 31 30 31 31 31 32 33 33 34 34 35 35 36 36 36 35 34 33 31 30 29 28 27
24 24 24 25 25 25 26 26 26 26 27 27 27 28 28 29 28 29 29 30 31 31 32 32 33 33 34 34 33 32 31 30 28 27 26 25 25 25
23 23 23 24 25 25 25 25 25 25 25 25 26 26 26 26 27 28 28 29 29 29 30 31 31 31 31 30 30 29 28 27 26 25 24 23 22 22
23 23 23 23 22 23 23 24 24 23 23 23 24 24 24 24 25 26 27 27 28 29 29 29 29 28 28 28 27 26 26 25 24 23 22 20 20 19
21 21 20 21 21 20 21 21 21 22 22 21 22 23 23 24 25 25 26 26 27 28 27 27 27 26 26 25 25 24 23 22 22 20 19 18 17 16
18 18 18 18 18 18 19 20 20 20 20 21 22 22 23 23 24 24 25 25 26 26 25 25 24 24 24 23 22 21 20 19 18 17 15 15 14 14
16 16 17 17 17 18 18 18 19 19 20 21 21 21 22 22 22 23 23 23 23 23 22 22 21 21 21 20 19 18 17 16 14 13 13 12 13 13
14 15 15 16 17 17 17 18 18 19 20 21 21 21 21 21 21 21 21 21 21 21 20 20 20 19 18 17 16 15 14 13 12 11 11 11 12 13
14 14 15 16 16 16 17 17 18 19 20 20 20 20 20 20 19 19 19 19 19 19 19 18 17 17 16 15 14 13 12 11 10 10 10 11 11 13
12 13 13 14 15 15 16 16 17 17 18 18 18 18 17 17 17 16 17 17 17 17 17 16 15 15 14 13 12 11 10 10 9 10 10 11 12 13
10 11 12 13 14 14 15 15 15 15 15 15 15 15 14 14 14 14 15 15 15 15 14 13 13 13 12 12 11 10 9 9 9 10 10 11 12 13
9 10 11 12 12 12 13 13 12 12 12 12 12 12 12 12 12 13 13 14 14 13 12 11 11 10 10 10 10 9 9 9 9 10 11 12 13 14
8 9 9 10 10 10 10 10 10 9 9 10 10 10 10 11 11 12 12 12 12 11 10 10 9 10 10 9 9 8 9 9 10 10 11 12 13 14
6 7 7 7 7 7 7 6 7 7 8 8 8 9 9 9 10 10 10 10 9 9 8 9 9 9 9 8 8 8 9 9 10 11 12 13 14 15
4 4 4 4 3 4 4 5 5 6 7 7 7 7 8 8 8 8 8 7 7 7 8 8 8 8 8 8 8 8 9 10 11 12 13 14 15 16
1 1 2 2 2 3 3 4 5 5 5 6 6 6 5 5 6 6 6 6 6 7 7 7 8 8 7 8 8 9 10 11 12 13 15 15 16 16
3 3 3 3 3 3 3 3 3 4 4 4 4 4 4 4 5 5 6 6 6 6 6 7 7 7 7 8 9 10 11 12 14 15 15 16 17 17
6 5 5 5 5 4 4 4 4 4 4 4 4 4 4 4 5 5 6 6 6 6 7 7 7 8 9 10 11 12 13 14 15 16 16 17 17 17
8 7 7 7 7 7 6 6 5 5 5 5 5 5 5 5 5 6 6 6 6 7 7 8 9 10 11 12 13 14 15 16 16 17 17 17 17 17

GEFSNE_500_meanwind_102.txt.gz
Wind_Speed
32 32 32 32 32 31 31 32 32 32 32 33 34 34 33 34 34 33 34 35 35 36 37 38 38 37 36 37 37 37 37 37 38 39 40 40 41 42
30 31 31 31 31 30 30 31 32 33 34 33 33 33 33 33 33 33 34 35 35 36 37 36 35 35 35 35 35 35 36 36 36 37 38 39 41 41
28 29 30 30 30 30 30 30 31 31 31 31 32 31 31 31 32 33 34 34 34 34 33 34 33 33 33 32 32 33 34 35 35 36 37 37 38 37
27 28 28 29 28 29 29 28 29 29 29 30 30 29 29 30 31 31 30 30 30 31 31 30 29 29 29 30 30 31 33 34 34 35 35 35 34 33
24 24 25 26 27 27 26 26 25 25 26 27 27 26 26 27 27 26 26 27 27 27 26 26 26 27 28 29 30 31 32 32 33 33 32 32 31 29
22 22 22 23 24 24 24 24 24 24 24 24 24 25 25 25 25 25 25 25 24 24 24 24 25 26 27 28 29 30 30 30 30 30 29 28 27 26
21 20 20 21 22 21 22 22 23 23 23 24 23 23 23 23 23 23 22 22 22 22 23 24 25 26 27 27 28 28 28 28 28 27 26 25 23 22
19 20 19 19 20 20 20 19 19 20 20 20 20 20 21 21 21 20 20 20 21 21 22 23 24 25 26 26 27 27 26 26 25 24 23 21 21 20
18 19 19 19 19 19 18 19 18 19 19 18 18 19 19 19 19 19 19 20 20 21 22 23 23 24 24 25 25 24 24 23 22 21 20 19 18 18
18 19 18 17 17 17 17 17 18 18 17 18 18 18 17 17 17 17 18 19 20 21 21 21 22 22 22 22 22 21 21 20 19 18 17 17 16 16
14 14 14 14 15 15 16 16 16 16 16 16 16 16 16 17 17 18 18 18 19 20 20 21 21 21 20 20 19 19 18 17 16 16 16 15 15 15
10 10 10 10 11 12 13 14 14 14 14 14 15 15 15 16 16 17 17 17 18 18 19 19 19 18 18 17 17 16 15 15 15 14 14 14 14 15
8 9 10 10 10 10 11 12 13 13 13 13 14 14 15 15 15 15 16 16 16 16 16 17 16 16 16 15 14 14 13 14 14 13 13 14 14 15
7 7 8 8 9 10 10 10 10 10 11 11 12 12 13 13 13 13 13 14 14 14 15 15 15 14 14 13 13 12 12 13 13 12 13 14 14 15
7 6 6 6 7 8 8 8 8 8 9 9 9 10 10 10 10 11 11 11 12 13 13 13 12 12 12 12 12 12 12 12 12 12 12 14 15 16
5 5 5 5 5 5 6 6 7 7 7 7 7 7 8 8 8 9 9 10 11 11 11 11 10 11 11 11 11 12 12 12 12 13 14 14 15 16
2 2 2 3 3 4 4 5 5 5 5 5 6 6 6 6 7 7 8 9 9 9 10 10 9 10 10 10 11 12 12 12 13 14 15 15 16 17
0 0 1 2 2 3 3 3 3 3 4 4 5 5 5 5 6 7 8 8 9 9 9 10 10 10 10 11 12 12 12 13 14 15 16 16 17 17
2 2 2 2 2 2 2 3 3 4 4 4 5 5 5 6 6 7 8 9 9 10 10 10 11 11 11 11 12 13 14 15 16 16 17 17 18 18
5 5 5 5 5 5 5 5 5 5 5 5 5 6 6 7 7 8 9 9 10 10 11 11 11 11 12 12 13 14 15 16 17 18 18 19 19 20
7 7 7 7 7 7 7 6 6 7 7 7 7 7 7 7 8 9 9 10 11 11 12 12 12 13 13 14 14 15 17 17 18 19 19 20 20 21
9 9 9 9 9 9 8 8 8 8 8 8 8 8 8 9 10 10 11 11 12 12 13 13 14 14 15 16 16 17 17 18 19 19 20 21 21 21
11 11 11 11 11 11 10 10 10 10 10 10 10 10 10 10 11 12 12 13 13 14 14 15 15 16 16 17 17 17 18 18 19 19 20 22 23 23

GEFSNE_500_meanwind_108.txt.gz
Wind_Speed
26 27 28 29 30 31 30 30 30 30 29 29 29 29 29 30 31 31 32 33 33 33 33 34 35 35 35 35 36 36 37 37 36 36 36 36 36 36
26 27 27 28 28 29 29 29 29 29 29 29 29 29 29 31 31 31 31 31 31 32 33 33 33 34 33 33 34 34 34 33 34 33 34 34 35 36
24 25 26 27 27 27 28 28 28 28 28 28 28 28 28 29 29 29 28 28 29 30 30 30 30 29 30 30 31 31 31 31 31 32 33 34 35 35
23 24 24 26 26 26 27 27 26 26 26 27 26 26 25 25 26 26 26 26 27 27 27 27 27 28 28 29 29 29 29 30 31 32 33 33 33 33
22 22 23 24 24 25 25 25 24 24 25 25 24 24 24 24 25 26 26 26 26 26 25 26 26 27 28 28 28 28 29 29 30 31 31 31 31 30
22 23 23 23 23 23 22 22 23 23 23 23 22 22 22 23 23 23 23 23 23 24 25 25 26 26 27 27 27 27 28 29 29 29 29 29 28 27
20 20 21 21 20 20 20 20 21 21 20 20 20 20 21 21 22 21 21 21 22 23 24 24 24 24 24 25 26 26 27 27 27 27 26 26 25 25
18 17 17 17 18 19 19 19 19 19 19 19 19 19 20 19 19 20 20 21 22 22 21 21 22 22 22 23 24 25 26 25 25 24 24 23 23 22
16 16 16 15 16 16 17 17 18 18 19 19 18 18 18 17 18 19 19 19 19 19 18 19 19 20 21 22 23 24 23 23 22 21 21 20 20 20
14 14 14 13 14 15 15 16 16 16 17 17 17 17 17 16 16 16 16 17 17 17 17 17 18 19 20 21 21 21 20 20 19 19 18 18 17 17
12 12 12 12 13 14 14 14 14 14 14 14 14 14 14 14 14 14 14 14 14 14 15 16 16 17 18 19 18 18 17 17 17 16 16 15 15 15
9 9 9 8 9 11 11 11 11 11 11 11 12 12 12 12 11 11 11 12 12 13 13 14 15 15 15 15 15 15 14 14 14 14 14 15 15 15
8 7 6 6 7 8 8 9 9 9 9 10 9 9 9 9 9 9 9 9 10 11 11 12 12 12 12 13 13 12 13 13 13 14 14 14 15 15
7 6 6 6 6 6 7 7 7 7 7 7 6 6 6 6 7 7 7 7 7 8 9 9 10 10 10 11 11 12 12 13 13 13 14 14 15 16
5 5 5 5 5 5 5 4 4 4 4 4 4 4 4 3 3 4 4 5 5 6 7 7 8 9 10 10 11 11 12 12 12 13 14 15 16 17
5 4 4 4 4 4 3 3 2 2 2 1 1 0 1 1 2 2 3 3 4 5 6 7 8 9 9 10 10 11 12 12 13 14 15 16 17 17
5 5 5 5 5 5 5 4 4 3 3 2 2 2 2 2 2 3 3 4 5 6 7 7 8 9 9 10 11 12 13 13 14 15 16 17 18 18
6 6 7 7 6 6 6 6 5 5 5 5 4 4 4 4 4 4 5 5 6 7 7 8 9 10 11 11 12 13 14 15 16 16 16 17 18 19
8 8 8 8 9 9 8 8 7 7 7 6 6 5 5 5 5 5 6 6 7 7 8 9 10 10 11 12 13 14 15 16 16 17 18 18 18 19
11 11 11 11 11 10 9 9 8 8 8 8 7 7 7 6 6 7 7 7 8 8 9 10 10 11 12 13 14 15 16 17 17 18 19 19 20 20
12 12 12 12 12 11 10 10 10 10 9 9 8 8 8 8 8 8 8 8 9 9 10 11 12 13 13 14 15 16 18 19 19 20 20 21 21 23
14 13 13 13 13 12 12 11 11 11 10 9 9 9 8 8 9 9 9 9 10 11 12 13 13 14 15 16 16 17 18 19 21 22 23 24 25 25
15 14 14 14 14 14 13 13 12 12 11 11 10 10 9 9 9 9 10 10 11 12 13 14 15 16 17 17 18 19 20 21 22 24 25 28 29 30